LRI4LW HECA-LFPG

Flight info

Callsign LRI4LW
Flight time N/A
Altitude 32000
Route CVO L617 NABSI M872 METRU UM872 LATAN DCT PES DCT LOMED DCT AOSTA DCT ORSUD DCT MOLUS DCT UNKIR DCT GIVRI DCT TINIL
Aircraft B77L/H-SDE1E2E3FGHIJ2J3J4J5M1RWXY/LB1D1

Departure

Time 2026-04-27 11:45
Airport Cairo International Airport (HECA)

Arrival

Time N/A
Airport Charles de Gaulle International Airport (LFPG)
Time Latitude Longitude Altitude Speed Heading
2026-04-27 11:28 30.11745 31.40980 344 ft 0 kts 252°
2026-04-27 11:32 30.11745 31.40981 344 ft 3 kts 252°
2026-04-27 11:32 30.11753 31.41011 350 ft 4 kts 251°
2026-04-27 11:32 30.11762 31.41040 356 ft 4 kts 250°
2026-04-27 11:32 30.11772 31.41069 356 ft 4 kts 246°
2026-04-27 11:33 30.11783 31.41096 356 ft 3 kts 238°
2026-04-27 11:33 30.11794 31.41114 356 ft 2 kts 217°
2026-04-27 11:33 30.11804 31.41120 356 ft 2 kts 188°
2026-04-27 11:33 30.11816 31.41121 356 ft 2 kts 168°
2026-04-27 11:34 30.11826 31.41118 355 ft 2 kts 163°
2026-04-27 11:34 30.11828 31.41117 355 ft 0 kts 163°
2026-04-27 11:37 30.11824 31.41119 355 ft 2 kts 163°
2026-04-27 11:37 30.11808 31.41124 356 ft 2 kts 163°
2026-04-27 11:37 30.11792 31.41130 357 ft 2 kts 162°
2026-04-27 11:38 30.11776 31.41136 351 ft 2 kts 162°
2026-04-27 11:38 30.11760 31.41142 356 ft 2 kts 162°
2026-04-27 11:38 30.11744 31.41148 359 ft 4 kts 162°
2026-04-27 11:38 30.11675 31.41173 361 ft 13 kts 162°
2026-04-27 11:39 30.11600 31.41203 366 ft 7 kts 161°
2026-04-27 11:39 30.11575 31.41213 367 ft 4 kts 161°
2026-04-27 11:39 30.11518 31.41234 365 ft 12 kts 163°
2026-04-27 11:39 30.11435 31.41264 373 ft 12 kts 156°
2026-04-27 11:40 30.11412 31.41347 376 ft 13 kts 59°
2026-04-27 11:40 30.11469 31.41425 377 ft 14 kts 46°
2026-04-27 11:40 30.11537 31.41511 377 ft 15 kts 48°
2026-04-27 11:40 30.11604 31.41600 378 ft 15 kts 49°
2026-04-27 11:41 30.11670 31.41689 379 ft 15 kts 50°
2026-04-27 11:41 30.11735 31.41780 376 ft 15 kts 50°
2026-04-27 11:41 30.11801 31.41870 376 ft 15 kts 47°
2026-04-27 11:41 30.11868 31.41957 375 ft 15 kts 48°
2026-04-27 11:42 30.11935 31.42045 373 ft 15 kts 49°
2026-04-27 11:42 30.12001 31.42135 375 ft 15 kts 50°
2026-04-27 11:42 30.12066 31.42226 375 ft 15 kts 50°
2026-04-27 11:42 30.12142 31.42325 377 ft 21 kts 49°
2026-04-27 11:43 30.12273 31.42500 374 ft 35 kts 50°
2026-04-27 11:43 30.12408 31.42681 372 ft 20 kts 48°
2026-04-27 11:43 30.12472 31.42821 373 ft 20 kts 92°
2026-04-27 11:43 30.12397 31.42926 382 ft 18 kts 162°
2026-04-27 11:44 30.12288 31.42901 383 ft 14 kts 220°
2026-04-27 11:44 30.12282 31.42895 383 ft 0 kts 224°
2026-04-27 11:44 30.12277 31.42889 384 ft 7 kts 224°
2026-04-27 11:45 30.12125 31.42705 385 ft 66 kts 229°
2026-04-27 11:45 30.11672 31.42090 387 ft 133 kts 229°
2026-04-27 11:45 30.10940 31.41113 393 ft 186 kts 229°
2026-04-27 11:45 30.10069 31.39968 952 ft 187 kts 231°
2026-04-27 11:46 30.09184 31.38891 1540 ft 191 kts 229°
2026-04-27 11:46 30.08240 31.37760 1961 ft 196 kts 230°
2026-04-27 11:46 30.07266 31.36623 2441 ft 202 kts 229°
2026-04-27 11:46 30.06289 31.35452 2954 ft 202 kts 231°
2026-04-27 11:47 30.05298 31.34288 3493 ft 206 kts 230°
2026-04-27 11:47 30.04249 31.33058 3746 ft 224 kts 230°
2026-04-27 11:47 30.03115 31.31694 3903 ft 245 kts 234°
2026-04-27 11:47 30.02326 31.29928 4146 ft 254 kts 263°
2026-04-27 11:48 30.02410 31.27918 4716 ft 252 kts 291°
2026-04-27 11:48 30.03269 31.26171 5306 ft 253 kts 316°
2026-04-27 11:48 30.04610 31.24864 5827 ft 258 kts 322°
2026-04-27 11:48 30.06028 31.23603 6613 ft 257 kts 322°
2026-04-27 11:49 30.07460 31.22340 7276 ft 261 kts 323°
2026-04-27 11:49 30.08909 31.21066 7957 ft 262 kts 323°
2026-04-27 11:49 30.10369 31.19778 8674 ft 264 kts 323°
2026-04-27 11:49 30.11836 31.18482 9326 ft 267 kts 323°
2026-04-27 11:50 30.13319 31.17169 9985 ft 269 kts 323°
2026-04-27 11:50 30.14823 31.15835 10460 ft 280 kts 324°
2026-04-27 11:50 30.16434 31.14400 10638 ft 304 kts 324°
2026-04-27 11:50 30.18169 31.12852 10803 ft 326 kts 324°
2026-04-27 11:51 30.20022 31.11194 11027 ft 345 kts 323°
2026-04-27 11:51 30.21922 31.09490 11573 ft 354 kts 324°
2026-04-27 11:51 30.25879 31.05941 13103 ft 364 kts 323°
2026-04-27 11:52 30.27884 31.04134 13919 ft 367 kts 323°
2026-04-27 11:52 30.29909 31.02311 14600 ft 371 kts 323°
2026-04-27 11:52 30.31960 31.00464 15288 ft 376 kts 323°
2026-04-27 11:52 30.34034 30.98596 15993 ft 379 kts 323°
2026-04-27 11:53 30.36125 30.96712 16700 ft 382 kts 323°
2026-04-27 11:53 30.38236 30.94808 17394 ft 386 kts 323°
2026-04-27 11:53 30.40370 30.92883 18052 ft 390 kts 322°
2026-04-27 11:53 30.42527 30.90938 18656 ft 394 kts 322°
2026-04-27 11:54 30.44701 30.88976 19260 ft 397 kts 322°
2026-04-27 11:54 30.46887 30.87001 19868 ft 399 kts 322°
2026-04-27 11:54 30.49086 30.85013 20484 ft 402 kts 322°
2026-04-27 11:54 30.51270 30.83036 21067 ft 405 kts 322°
2026-04-27 11:55 30.53500 30.81017 21640 ft 408 kts 322°
2026-04-27 11:55 30.55756 30.78974 22214 ft 411 kts 321°
2026-04-27 11:55 30.58019 30.76922 22775 ft 414 kts 321°
2026-04-27 11:55 30.60303 30.74851 23337 ft 417 kts 321°
2026-04-27 11:56 30.62604 30.72763 23839 ft 420 kts 321°
2026-04-27 11:56 30.64918 30.70662 24305 ft 423 kts 321°
2026-04-27 11:56 30.67215 30.68576 24733 ft 427 kts 321°
2026-04-27 11:56 30.69572 30.66433 25186 ft 430 kts 321°
2026-04-27 11:57 30.71936 30.64282 25635 ft 433 kts 321°
2026-04-27 11:57 30.74317 30.62114 26066 ft 436 kts 320°
2026-04-27 11:57 30.76716 30.59930 26486 ft 439 kts 320°
2026-04-27 11:57 30.79104 30.57754 26900 ft 443 kts 320°
2026-04-27 11:58 30.81567 30.55508 27329 ft 446 kts 320°
2026-04-27 11:58 30.83986 30.53300 27755 ft 448 kts 320°
2026-04-27 11:58 30.86449 30.51051 28171 ft 451 kts 320°